Location: Nitra
(0.0000°N, 18.0833°E)
Time: 14:37:20
(UTC+01:00)

ARGOS - Visible Passes

Search period start: 21 March 2023 00:00
Search period end: 31 March 2023 01:00
Orbit: 820 x 833 km, 98.4° (Epoch: 20 March)

Date Brightness Start Highest point End Pass type
(mag) Time Alt. Az. Time Alt. Az. Time Alt. Az.
21 Mar 3.3 05:27:07 10° NNE 05:32:29 87° ESE 05:37:51 10° S visible
21 Mar 5.4 18:08:27 10° SSW 18:13:09 31° WSW 18:17:51 10° NW visible
22 Mar 4.1 05:08:35 10° NNE 05:13:47 52° ESE 05:18:59 10° S visible
23 Mar 5.1 04:50:24 10° NE 04:55:06 31° ESE 04:59:47 10° SSE visible
24 Mar 5.9 04:32:43 10° ENE 04:36:24 19° ESE 04:40:06 10° SSE visible
25 Mar 6.4 04:16:23 10° E 04:17:44 11° ESE 04:19:04 10° ESE visible
25 Mar 6.2 18:35:16 10° SW 18:38:20 15° WSW 18:41:23 10° WNW visible
26 Mar 5.7 19:15:16 10° SSW 19:19:39 25° WSW 19:24:02 10° NW visible
27 Mar 3.7 06:15:00 10° NNE 06:20:17 64° ESE 06:25:35 10° S visible
28 Mar 4.7 05:56:40 10° NE 06:01:36 38° ESE 06:06:31 10° S visible
29 Mar 5.6 05:38:44 10° NE 05:42:54 23° ESE 05:47:03 10° SSE visible
30 Mar 6.1 05:21:36 10° ENE 05:24:13 14° ESE 05:26:49 10° SE visible
30 Mar 6.4 19:42:41 10° SW 19:44:49 12° WSW 19:46:57 10° W visible
